#timestamp,LO_Frequency,Hit,StdDev 
1543906815.6,286047003.2,P
1543906835.5,286047005.2,Y
1543906855.3,286046998.8,P
1543906875.2,286046996.4,N
1543906895.9,286046996.8,N
1543906915.7,286047002.4,N
1543906935.6,286046997.0,N
1543906955.4,286046999.5,N
1543906975.2,286046997.8,N
1543906995.1,286046998.9,N
1543906996.0,286046998.9,N
1543907015.8,286047000.6,N
1543907035.7,286047002.5,N
1543907055.5,286046997.8,N
1543907075.3,286046997.9,N
1543907095.2,286046999.3,N
1543907115.0,286046996.9,N
1543907115.9,286046996.9,N
1543907135.8,286047002.6,N
1543907155.6,286047004.6,N
1543907175.4,286047009.0,Y
1543907195.3,286047010.3,P
1543907215.1,286047007.9,N
1543907235.8,286047008.4,N
1543907255.7,286047006.9,N
1543907275.5,286047010.7,N
1543907295.4,286047009.1,N
1543907315.2,286047009.0,N
1543907335.0,286047011.8,Y
1543907335.9,286047011.8,P
1543907355.8,286047003.6,N
1543907375.6,286047002.2,N
1543907395.5,286047007.1,N
1543907415.3,286047003.7,N
1543907435.1,286046998.3,N
1543907455.9,286046997.4,N
1543907475.7,286047002.1,N
1543907495.5,286047000.6,N
1543907515.4,286047001.3,N
1543907535.2,286046996.9,N
1543907555.1,286046996.0,N
1543907556.0,286046996.0,N
1543907575.8,286046998.1,N
1543907595.6,286047002.8,N
1543907615.5,286046999.4,N
1543907635.3,286046997.4,N
1543907655.1,286046997.5,N
1543907675.9,286046999.4,N
1543907695.7,286047000.6,N
1543907715.6,286046998.4,N
1543907735.4,286047002.1,N
1543907755.2,286047002.9,N
1543907775.1,286046999.2,N
1543907776.0,286046999.2,N
1543907795.8,286047002.8,N
1543907815.6,286047005.7,N
1543907835.5,286047006.0,N
1543907855.3,286047003.6,N
1543907875.2,286047001.9,N
1543907895.9,286047003.7,N
1543907915.7,286047005.0,N
1543907935.6,286047003.5,N
1543907955.4,286047005.7,N
1543907975.3,286047005.5,N
1543907995.1,286047006.1,N
1543907996.0,286047006.1,N
1543908015.8,286047007.3,N
1543908035.7,286047006.0,N
1543908055.5,286047007.9,N
1543908075.3,286047008.8,N
1543908095.2,286047007.1,N
1543908115.0,286047004.6,N
1543908115.9,286047004.6,N
1543908135.8,286047003.6,N
1543908155.6,286047005.0,N
1543908175.4,286047007.8,N
1543908195.3,286047005.2,N
1543908215.1,286047005.5,N
1543908235.9,286047002.5,N
1543908255.7,286047005.4,N
1543908275.5,286047003.0,N
1543908295.4,286047005.6,N
1543908315.2,286047008.4,Y
1543908335.0,286047000.5,P
1543908335.9,286047000.5,N
1543908355.8,286047000.5,N
1543908375.6,286047004.4,N
1543908395.5,286047000.2,N
1543908415.3,286047000.6,N
1543908435.1,286046996.3,N
1543908455.9,286046996.2,N
1543908475.7,286046997.6,N
1543908495.6,286046998.8,N
1543908515.4,286046995.3,N
1543908535.2,286046995.8,N
1543908555.1,286046997.8,N
1543908556.0,286046997.8,N
1543908575.8,286046998.6,N
1543908595.6,286046998.9,N
1543908615.5,286046993.9,N
1543908635.3,286046995.3,N
1543908655.2,286046995.0,N
1543908675.9,286046997.5,N
1543908695.7,286046995.1,N
1543908715.6,286046993.4,N
1543908735.4,286046995.3,N
1543908755.3,286046992.4,N
1543908775.1,286046993.9,N
1543908776.0,286046993.9,N
1543908795.8,286046994.9,N
1543908815.7,286046998.6,N
1543908835.5,286046999.6,N
1543908855.3,286047000.8,N
1543908875.2,286047000.1,N
1543908895.0,286046997.8,N
1543908895.9,286046997.8,N
1543908915.8,286047001.2,N
1543908935.6,286046999.7,N
1543908955.4,286046998.2,N
1543908975.3,286046999.0,N
1543908995.1,286046997.1,N
1543909015.9,286046998.8,N
1543909035.7,286046997.2,N
1543909055.5,286046999.2,N
1543909075.4,286046995.4,N
1543909095.2,286047000.6,N
1543909115.0,286046998.7,N
1543909115.9,286046998.7,N
1543909135.8,286046996.1,N
1543909155.6,286046996.2,N
1543909175.5,286046994.3,N
1543909195.3,286046989.2,Y
1543909215.1,286046989.7,P
1543909235.9,286046990.4,N
1543909255.7,286046993.1,N
1543909275.6,286046994.9,N
1543909295.4,286046994.7,N
1543909315.2,286046997.0,N
1543909335.1,286046995.3,N
1543909336.0,286046995.3,N
1543909355.8,286046996.1,N
1543909375.6,286046995.9,N
1543909395.5,286046992.6,Y
1543909415.3,286046997.7,P
1543909435.2,286046996.0,N
1543909455.9,286046993.0,P
1543909475.7,286046993.0,Y
1543909495.6,286046996.7,P
1543909515.4,286046995.5,P
1543909535.3,286046997.6,P
1543909555.1,286046994.5,Y
1543909556.0,286046994.5,P
1543909575.8,286046994.1,P
1543909595.7,286046995.7,P
1543909615.5,286047002.2,N
1543909635.3,286047000.3,N
1543909655.2,286047000.6,N
1543909675.0,286047002.6,N
1543909675.9,286047002.6,N
1543909695.8,286047002.5,N
1543909715.6,286047006.0,N
1543909735.4,286047005.0,N
1543909755.3,286047005.0,N
1543909775.1,286047007.5,N
1543909795.9,286047005.3,N
1543909815.7,286047005.4,N
1543909835.5,286047005.6,N
1543909855.4,286047003.8,N
1543909875.2,286047002.6,N
1543909895.0,286047002.7,N
1543909895.9,286047002.7,N
1543909915.8,286047005.6,N
1543909935.6,286047002.9,N
1543909955.5,286047001.3,N
1543909975.3,286047000.5,N
1543909995.1,286047001.5,N
1543910015.9,286046998.2,N
1543910035.7,286047000.3,N
1543910055.6,286047003.4,N
1543910075.4,286047006.7,N
1543910095.2,286047003.4,N
1543910115.1,286047006.0,N
1543910116.0,286047006.0,N
1543910135.8,286047010.6,Y
1543910155.6,286047003.8,P
1543910175.5,286047004.7,P
1543910195.3,286047001.8,N
1543910215.2,286047000.5,N
1543910235.9,286047003.2,N
1543910255.7,286047000.4,N
1543910275.6,286047004.3,N
1543910295.4,286047003.7,N
1543910315.3,286047004.9,Y
1543910335.1,286047003.7,P
1543910336.0,286047003.7,P
1543910355.8,286047006.0,P
1543910375.7,286047003.0,N
1543910395.5,286047003.5,Y
